Flag for Ireland Weather past 2 weeks in Limerick, Ireland

Now
46 °F

Passing clouds.


Feels Like: 41 °F
Forecast: 42 / 49 °F
Wind: 10 mph from South

Location: Shannon Airport

Current Time: Mar 5, 2015 at 3:04:05 AM

Latest Report: Mar 5, 2015 at 2:00 AM


Visibility: N/A

Pressure: 30.57 "Hg

Humidity: 76%

Dew point: 39 °F

Location of LimerickLocation

Historic Weather in Limerick — Graph

°F

Limerick temperature yesterday

Maximum temperature yesterday: 50 °F (at 2:00 PM)
Minimum temperature yesterday: 36 °F (at 7:00 AM)
Average temperature yesterday: 43 °F

Past Weeks' High & Low Weather Summary

 TemperatureHumidityPressure
High54 °F (Feb 18, 11:00 AM)100% (Feb 22, 11:30 AM)30.60 "Hg (Feb 22, 11:30 AM)
Low34 °F (Mar 2, 6:30 AM)53% (Feb 26, 11:00 AM)29.00 "Hg (Feb 23, 3:00 PM)
Average43 °F82%29.79 "Hg
* Reported Feb 18 2:00 AM — Mar 5 2:00 AM, Limerick, Weather by CustomWeather, © 2015

Note: Actual official high and low records may vary slightly from our data, if they occured in-between our weather recording intervals... More about our weather records

Advertising

Limerick weather history for previous 24 hours

 ConditionsComfort  
Time TempWeatherWind HumidityBarometerVisibility
2:00 AM
Thu, Mar 5
46 °FPassing clouds.10 mph76%30.57 "HgN/A
1:30 AM45 °FPassing clouds.10 mph81%30.57 "HgN/A
1:00 AM45 °FPassing clouds.8 mph81%30.60 "HgN/A
12:30 AM45 °FPassing clouds.8 mph81%30.60 "HgN/A
12:00 AM45 °FPassing clouds.9 mph81%30.60 "HgN/A
11:30 PM
Wed, Mar 4
45 °FPassing clouds.13 mph81%30.60 "HgN/A
11:00 PM45 °FPassing clouds.9 mph76%30.60 "HgN/A
10:30 PM45 °FPassing clouds.9 mph76%30.60 "HgN/A
9:00 PM45 °FPassing clouds.9 mph76%30.60 "HgN/A
8:30 PM45 °FPassing clouds.8 mph76%30.60 "HgN/A
8:00 PM46 °FPassing clouds.9 mph71%30.60 "HgN/A
7:30 PM46 °FPassing clouds.12 mph76%30.60 "HgN/A
7:00 PM46 °FPassing clouds.10 mph76%30.60 "HgN/A
6:30 PM46 °FPassing clouds.12 mph76%30.60 "HgN/A
6:00 PM48 °FPartly sunny.9 mph71%30.60 "HgN/A
5:30 PM48 °FPartly sunny.7 mph71%30.57 "HgN/A
5:00 PM48 °FScattered clouds.12 mph71%30.57 "HgN/A
4:30 PM50 °FScattered clouds.10 mph67%30.57 "HgN/A
4:00 PM50 °FScattered clouds.10 mph67%30.57 "HgN/A
3:30 PM48 °FBroken clouds.13 mph71%30.57 "HgN/A
3:00 PM50 °FBroken clouds.13 mph67%30.57 "HgN/A
2:30 PM48 °FBroken clouds.15 mph66%30.57 "HgN/A
2:00 PM50 °FBroken clouds.14 mph67%30.57 "HgN/A
1:30 PM48 °FBroken clouds.14 mph66%30.57 "HgN/A
1:00 PM48 °FPartly sunny.12 mph66%30.57 "HgN/A
12:30 PM46 °FBroken clouds.9 mph76%30.57 "HgN/A
12:00 PM46 °FBroken clouds.9 mph71%30.54 "HgN/A
11:30 AM45 °FBroken clouds.9 mph81%30.54 "HgN/A
11:00 AM45 °FBroken clouds.8 mph76%30.54 "HgN/A
10:30 AM45 °FScattered clouds.9 mph76%30.54 "HgN/A
10:00 AM43 °FPassing clouds.7 mph81%30.51 "HgN/A
9:30 AM43 °FScattered clouds.7 mph76%30.51 "HgN/A
9:00 AM41 °FPassing clouds.6 mph81%30.51 "HgN/A
8:30 AM39 °FScattered clouds.6 mph87%30.48 "HgN/A
8:00 AM39 °FScattered clouds.6 mph87%30.48 "HgN/A
7:30 AM37 °FPassing clouds.9 mph87%30.45 "HgN/A
7:00 AM36 °FPassing clouds.7 mph93%30.45 "HgN/A
6:30 AM37 °FPassing clouds.7 mph87%30.42 "HgN/A
6:00 AM37 °FSprinkles. Passing clouds.9 mph87%30.42 "HgN/A
5:30 AM39 °FPassing clouds.10 mph81%30.39 "HgN/A
5:00 AM39 °FPassing clouds.12 mph81%30.39 "HgN/A
4:30 AM37 °FPassing clouds.12 mph81%30.36 "HgN/A
4:00 AM37 °FPassing clouds.16 mph81%30.36 "HgN/A
3:30 AM37 °FSprinkles. Passing clouds.7 mph87%30.33 "HgN/A
3:00 AM37 °FPassing clouds.12 mph87%30.33 "HgN/A
Weather by CustomWeather, © 2015

See weather overviewHow to use our weather pages